{"data":{"norad_id":64516,"epoch":"2026-09-21T18:45:20.658240Z","epoch_age_seconds":71005,"freshness":"FRESH","line1":"1 64516U 25134S   26264.78148910  .00001896  00000+0  27765-3 0  9998","line2":"2 64516  51.9023  76.0370 0000884 123.7672 236.3375 14.79936428 69259","mean_motion":14.79936428,"eccentricity":8.84e-5,"inclination_deg":51.9023,"raan_deg":76.037,"arg_perigee_deg":123.7672,"mean_anomaly_deg":236.3375,"bstar":0.00027765,"rev_number":6925,"period_min":97.301476790191,"perigee_km":628.90533054553,"apogee_km":630.14428515316,"semimajor_km":7007.6618078493,"source":"CELESTRAK","updated_at":"2026-09-22T09:00:29.810577Z"}}